Wind_Speed
16 17 19 19 21 22 23 21 20 19 17 14 11 10 10 8 8 5 4 5 6 8 12 12 14 13 13 12 9 10 11 10 12 11 13 15 16 15 14 14 15 16 16
16 16 16 18 22 25 25 24 21 17 14 12 10 10 9 7 9 8 8 7 9 8 11 12 13 12 11 11 11 9 8 8 12 11 11 12 14 12 11 13 14 15 12
17 16 14 15 17 21 25 23 22 17 13 12 12 12 10 11 11 9 8 9 10 11 12 11 11 10 10 9 9 8 9 9 9 11 12 9 10 11 10 11 11 11 12
16 16 15 14 17 20 25 24 22 19 14 13 14 12 10 10 12 12 11 12 13 13 13 11 10 9 9 10 9 7 8 10 10 10 12 9 10 9 8 8 9 11 13
22 19 18 19 21 20 24 26 23 21 18 16 13 10 11 11 10 12 13 14 14 14 15 13 11 9 8 10 10 9 8 10 12 12 12 10 10 9 8 8 9 11 12
21 19 20 21 18 19 23 26 23 21 20 18 15 12 11 12 13 13 15 18 17 15 15 14 13 10 7 8 9 9 9 12 13 13 13 11 10 9 7 10 12 12 12
17 16 16 16 18 16 17 21 25 22 22 20 17 15 15 14 14 15 14 17 17 15 14 13 12 10 8 7 7 6 8 11 13 13 14 13 10 10 9 11 13 16 16
20 20 19 18 20 21 19 20 26 26 21 22 20 18 17 16 16 17 15 15 16 15 13 11 9 8 8 7 7 7 8 9 13 14 12 14 11 9 9 10 13 18 17
20 20 18 19 22 22 22 22 24 29 25 21 20 19 18 18 18 18 18 16 15 16 14 11 9 8 8 9 7 6 8 9 11 14 14 12 11 10 10 11 14 17 17
19 21 23 24 23 20 20 22 24 26 30 26 22 19 20 19 19 19 18 18 17 16 14 12 9 8 8 9 9 7 7 8 10 12 13 13 12 12 12 13 15 14 14
22 22 27 26 28 28 25 23 23 25 27 28 27 24 21 21 20 20 20 20 18 16 15 12 10 9 8 10 9 8 6 6 7 9 12 13 13 13 14 14 14 15 13
30 28 31 31 31 32 29 26 25 25 27 27 28 28 27 25 23 22 22 22 21 19 17 13 12 12 11 11 11 10 8 6 5 6 8 10 13 13 12 13 13 13 12
35 37 37 37 37 35 33 29 27 27 29 32 30 29 30 29 27 26 25 23 22 21 19 16 16 15 15 13 12 11 10 8 6 5 5 6 10 13 15 14 14 13 13
32 42 43 41 39 36 36 35 31 31 29 30 34 34 33 33 32 32 30 28 27 25 23 22 21 19 17 16 13 13 13 12 10 9 7 7 9 10 14 16 17 16 16
37 36 42 41 45 43 40 38 39 36 34 32 31 33 36 36 37 35 34 33 31 30 29 28 26 24 22 21 19 17 16 17 15 13 11 11 10 11 12 14 18 19 20
43 41 43 42 43 40 42 39 38 41 40 36 34 35 35 39 39 39 39 38 36 35 33 32 31 30 28 27 24 23 21 20 20 19 17 15 12 13 15 16 18 19 22
51 49 46 49 45 43 43 39 40 45 48 46 42 39 38 37 38 43 44 42 40 39 36 36 34 33 31 29 27 27 25 25 23 23 23 20 17 16 15 17 19 18 20
58 56 53 50 54 49 47 46 50 46 55 54 50 45 41 38 39 40 43 46 45 43 40 39 37 36 33 31 30 30 28 27 27 27 26 24 22 20 19 17 17 19 20
59 62 57 57 56 56 51 49 52 48 52 57 56 52 46 42 40 39 40 45 49 48 46 44 43 40 37 36 34 34 31 28 28 28 28 25 25 24 24 21 20 19 20
57 64 64 60 61 59 55 52 54 49 43 43 53 60 54 53 50 46 44 45 46 48 50 47 46 45 43 41 39 38 33 31 28 28 27 26 26 28 28 25 25 21 23
65 64 67 68 63 60 59 54 56 56 47 42 47 51 61 59 51 49 47 45 45 45 45 46 47 49 48 47 45 43 38 34 33 30 28 27 29 31 32 30 28 25 28
72 69 68 71 71 68 62 61 58 57 49 47 42 47 57 55 52 49 47 45 44 44 41 42 44 47 49 47 46 45 42 40 38 34 33 32 33 35 35 34 31 30 30
75 77 73 70 72 72 69 67 65 60 56 53 50 52 55 56 55 52 47 45 46 44 40 39 39 40 46 46 46 46 44 43 41 40 40 40 40 40 39 35 35 34 32
76 80 81 77 72 74 71 68 71 67 64 61 57 58 62 64 60 57 54 53 48 42 39 39 35 36 41 44 45 47 48 47 45 44 46 44 44 42 41 40 38 38 38
76 81 83 83 77 75 76 73 74 73 71 66 57 61 67 65 61 62 67 57 53 46 42 41 40 37 39 40 44 46 46 48 48 49 45 42 42 41 40 41 41 41 41
54 69 83 86 85 79 80 81 78 80 77 66 74 65 58 72 65 68 58 56 50 52 49 48 47 39 37 38 40 41 45 46 47 45 42 41 40 41 41 40 40 40 40
Wind_Direction
206 213 188 185 179 168 162 164 163 159 163 165 164 158 151 146 130 117 138 136 136 124 122 124 120 127 126 131 119 107 114 116 108 112 111 110 107 106 109 116 127 128 128
196 217 193 193 185 176 170 167 171 172 172 177 165 155 155 148 138 148 154 136 133 130 121 130 125 131 129 128 122 122 119 129 117 118 125 120 114 112 109 116 123 128 127
191 205 204 193 205 187 177 177 174 182 184 171 168 164 166 156 153 142 149 137 137 140 131 130 134 131 125 122 124 130 138 135 126 124 121 126 117 109 112 118 125 125 127
200 201 203 198 208 204 189 185 180 179 181 178 179 186 166 155 151 143 151 145 145 140 137 133 137 144 142 140 131 126 130 134 133 137 130 131 124 111 108 111 127 130 137
181 189 192 207 207 212 200 191 189 179 178 191 195 191 168 155 152 149 152 155 147 146 139 143 144 144 147 140 133 123 128 138 143 146 138 131 133 118 116 116 135 142 142
201 212 205 195 208 216 212 195 195 187 184 190 186 185 180 170 160 167 163 158 149 147 145 146 141 137 145 141 138 134 140 148 154 153 144 140 145 128 132 137 137 143 147
182 205 218 208 196 206 203 208 200 196 188 189 186 183 183 184 171 172 174 168 155 153 152 146 144 141 155 151 137 142 146 151 155 161 158 153 162 154 154 154 147 150 153
176 188 196 199 192 196 193 198 205 203 197 189 187 187 188 187 185 177 179 185 166 167 162 154 148 146 156 159 149 144 155 155 159 163 166 160 166 165 150 160 160 160 164
202 196 199 204 194 194 196 195 199 204 202 201 194 190 193 194 193 190 185 190 185 178 175 168 162 159 164 161 149 141 159 161 160 167 166 167 164 163 153 161 168 170 171
186 200 198 200 202 198 200 206 204 198 202 207 205 201 201 203 201 198 199 198 200 191 190 185 180 170 173 173 158 151 151 167 165 171 175 171 169 170 167 168 177 176 175
200 200 198 196 202 201 199 198 209 213 203 204 213 212 211 212 209 207 207 209 209 212 206 204 198 194 190 184 175 172 158 155 172 182 182 182 180 182 184 180 185 191 194
207 216 219 206 206 211 206 206 206 202 211 206 209 209 212 216 215 215 217 217 218 217 214 211 219 212 203 200 187 178 172 171 169 176 199 201 195 190 193 197 199 203 207
222 215 223 218 217 213 214 204 208 206 203 213 211 210 213 214 220 218 219 221 225 227 221 219 224 226 226 214 202 200 201 190 192 210 206 205 219 213 204 208 213 215 219
221 217 219 225 223 220 216 214 215 218 220 217 217 215 213 215 219 223 223 221 223 225 228 229 228 229 232 236 227 218 220 224 214 211 223 229 231 230 228 221 220 222 227
228 227 229 232 229 223 221 220 213 224 220 222 221 222 220 219 220 225 228 226 225 226 227 230 234 234 236 236 235 235 233 237 237 232 233 237 245 246 243 240 234 230 232
233 227 230 233 232 226 226 228 236 222 229 229 227 225 226 225 226 228 228 231 229 228 230 230 233 236 236 238 236 238 240 240 243 242 243 246 250 255 255 250 249 244 242
229 231 230 231 232 231 229 225 240 229 228 228 229 229 228 227 227 229 233 233 232 234 233 234 234 234 235 237 239 240 240 242 242 243 245 248 253 259 264 264 259 255 253
228 232 233 232 233 231 232 234 234 230 225 226 229 232 233 232 233 231 233 237 238 237 238 240 240 238 236 237 239 242 242 243 244 244 243 243 247 257 264 269 268 264 263
226 227 230 232 235 235 231 234 238 240 224 225 231 231 236 239 236 235 235 236 237 238 239 239 242 244 242 239 238 241 242 244 245 246 247 246 246 250 255 261 266 265 264
229 228 228 228 232 234 235 235 240 244 229 237 233 233 233 238 241 238 235 237 237 237 239 241 242 243 244 245 244 244 245 246 246 249 249 248 247 251 253 251 257 263 263
236 231 229 229 228 231 235 234 239 238 233 239 241 237 230 234 232 233 233 232 238 238 238 238 242 243 242 244 247 248 247 248 248 247 249 249 248 250 253 254 255 260 265
240 236 231 229 231 234 233 233 235 241 235 237 235 231 217 220 226 227 229 229 232 234 235 236 238 242 243 244 246 249 250 248 248 248 249 248 253 255 254 254 256 257 260
240 239 234 231 229 229 234 233 232 237 235 228 231 232 220 222 227 225 228 231 233 233 232 236 238 240 242 242 244 246 248 249 248 247 249 248 249 252 256 257 258 261 262
238 238 238 232 230 228 228 230 231 230 237 236 230 235 225 224 226 228 229 230 230 230 235 237 236 239 241 242 242 245 245 246 247 245 249 249 249 253 257 261 261 261 264
244 238 236 235 230 229 227 226 229 231 233 230 232 237 233 228 233 231 232 228 234 232 229 233 235 235 240 241 242 244 248 250 249 249 249 256 260 260 262 265 266 266 265
251 245 237 235 234 228 227 227 225 230 231 227 230 231 229 231 234 234 233 222 237 242 233 232 233 230 235 241 244 246 250 252 255 255 254 254 258 261 262 262 263 264 266
Height
5900 5904 5907 5909 5912 5914 5916 5919 5922 5925 5927 5929 5932 5933 5934 5934 5935 5937 5939 5941 5942 5944 5945 5945 5945 5946 5948 5948 5948 5949 5950 5952 5953 5954 5955 5955 5955 5956 5955 5955 5956 5957 5957
5898 5902 5905 5908 5912 5912 5916 5918 5921 5925 5927 5930 5931 5934 5935 5935 5935 5938 5940 5941 5942 5943 5945 5946 5946 5948 5949 5950 5950 5951 5952 5954 5955 5956 5958 5958 5958 5957 5958 5958 5959 5960 5961
5898 5900 5904 5906 5911 5914 5916 5919 5920 5924 5928 5930 5931 5933 5935 5936 5937 5937 5940 5940 5942 5944 5945 5947 5948 5949 5950 5951 5953 5953 5954 5956 5956 5957 5959 5960 5960 5960 5960 5961 5962 5963 5964
5898 5900 5903 5906 5910 5913 5915 5919 5921 5923 5928 5930 5932 5933 5934 5937 5938 5938 5940 5942 5943 5945 5945 5948 5949 5951 5952 5953 5954 5955 5955 5956 5957 5958 5959 5961 5961 5961 5962 5964 5965 5966 5967
5895 5897 5901 5904 5907 5912 5915 5918 5921 5922 5926 5929 5933 5935 5934 5935 5937 5939 5941 5942 5944 5946 5946 5948 5951 5952 5953 5954 5954 5955 5955 5957 5958 5960 5961 5961 5962 5963 5964 5965 5966 5968 5969
5894 5895 5897 5899 5906 5911 5915 5918 5921 5922 5924 5928 5931 5933 5935 5935 5937 5940 5942 5943 5944 5946 5947 5949 5950 5952 5954 5954 5954 5955 5955 5957 5959 5960 5961 5962 5964 5964 5965 5966 5967 5968 5971
5892 5896 5900 5902 5905 5910 5913 5917 5921 5922 5923 5926 5929 5932 5934 5936 5937 5940 5943 5944 5944 5947 5949 5950 5951 5952 5954 5955 5955 5955 5956 5957 5958 5960 5961 5962 5964 5965 5965 5967 5967 5969 5971
5889 5891 5895 5899 5902 5906 5910 5914 5919 5922 5923 5924 5927 5930 5933 5934 5937 5939 5942 5945 5945 5948 5950 5951 5952 5952 5954 5955 5955 5956 5957 5958 5958 5959 5962 5963 5964 5965 5966 5968 5969 5971 5972
5886 5888 5892 5896 5899 5901 5905 5909 5914 5919 5920 5922 5925 5928 5932 5932 5935 5938 5940 5944 5946 5948 5951 5951 5952 5953 5954 5955 5955 5956 5957 5957 5958 5959 5961 5963 5964 5965 5967 5968 5970 5971 5972
5885 5886 5889 5892 5896 5899 5901 5905 5909 5912 5915 5919 5922 5925 5929 5932 5933 5937 5940 5942 5945 5947 5949 5950 5951 5953 5954 5956 5955 5956 5957 5957 5959 5960 5961 5962 5963 5965 5966 5968 5969 5970 5972
5884 5883 5884 5887 5889 5892 5897 5899 5903 5908 5909 5913 5918 5922 5926 5929 5931 5934 5937 5941 5944 5945 5947 5949 5950 5951 5953 5955 5955 5956 5957 5958 5959 5960 5961 5962 5963 5964 5965 5967 5968 5970 5971
5877 5880 5882 5883 5885 5889 5893 5896 5898 5901 5906 5907 5912 5916 5921 5924 5927 5931 5932 5936 5940 5942 5945 5947 5949 5950 5951 5953 5954 5955 5956 5957 5958 5959 5960 5961 5962 5964 5966 5967 5968 5969 5970
5871 5874 5877 5880 5882 5885 5889 5891 5894 5895 5898 5904 5906 5909 5915 5919 5923 5926 5928 5932 5936 5940 5942 5945 5947 5949 5951 5952 5953 5954 5955 5956 5957 5958 5959 5960 5961 5962 5963 5965 5966 5967 5969
5863 5867 5872 5876 5879 5882 5884 5886 5890 5892 5894 5897 5901 5905 5908 5913 5917 5920 5922 5926 5931 5935 5939 5942 5944 5946 5949 5950 5951 5952 5954 5955 5955 5956 5957 5958 5959 5960 5961 5962 5962 5964 5965
5857 5861 5865 5869 5872 5876 5878 5879 5883 5887 5890 5893 5896 5901 5903 5906 5909 5914 5917 5920 5924 5928 5932 5936 5939 5941 5944 5946 5948 5949 5950 5953 5954 5954 5954 5955 5955 5956 5957 5958 5959 5959 5961
5847 5852 5857 5861 5864 5867 5871 5874 5876 5880 5884 5889 5893 5893 5896 5900 5904 5907 5909 5913 5917 5920 5924 5929 5933 5935 5939 5940 5942 5944 5946 5949 5951 5952 5952 5952 5953 5953 5954 5955 5955 5956 5957
5838 5843 5848 5851 5855 5859 5862 5866 5870 5873 5877 5880 5884 5887 5889 5893 5897 5900 5903 5907 5911 5914 5917 5922 5926 5929 5932 5933 5936 5938 5940 5943 5945 5947 5948 5949 5950 5950 5950 5951 5952 5953 5953
5825 5830 5836 5841 5845 5850 5855 5858 5859 5863 5866 5871 5876 5879 5881 5885 5889 5892 5897 5901 5904 5908 5911 5914 5918 5922 5925 5926 5928 5930 5933 5936 5938 5940 5942 5944 5945 5946 5946 5947 5948 5949 5949
5810 5815 5823 5829 5833 5838 5844 5847 5848 5852 5857 5861 5866 5870 5872 5876 5880 5885 5890 5892 5895 5899 5904 5907 5910 5914 5918 5919 5921 5922 5926 5929 5931 5933 5935 5938 5939 5939 5939 5941 5942 5943 5942
5796 5801 5806 5813 5819 5824 5831 5835 5838 5841 5846 5848 5853 5859 5863 5866 5871 5875 5878 5881 5887 5891 5894 5899 5904 5907 5911 5912 5914 5915 5919 5923 5924 5925 5928 5931 5932 5932 5932 5934 5935 5938 5936
5778 5784 5790 5797 5803 5810 5815 5822 5826 5830 5833 5839 5843 5847 5851 5856 5861 5865 5869 5872 5877 5881 5885 5889 5893 5898 5902 5905 5907 5908 5911 5916 5917 5919 5921 5923 5924 5923 5924 5926 5928 5931 5929
5757 5764 5773 5780 5787 5794 5800 5807 5813 5818 5824 5828 5831 5835 5838 5845 5851 5855 5860 5864 5867 5871 5875 5879 5883 5888 5892 5896 5900 5901 5903 5905 5907 5911 5912 5915 5915 5915 5915 5917 5920 5922 5923
5737 5743 5752 5762 5770 5776 5784 5790 5797 5804 5811 5816 5821 5825 5828 5835 5841 5846 5851 5856 5859 5863 5867 5870 5874 5878 5883 5886 5889 5892 5893 5894 5897 5900 5902 5904 5906 5906 5907 5910 5911 5912 5915
5713 5720 5729 5741 5752 5758 5765 5774 5779 5788 5795 5804 5808 5813 5818 5821 5828 5834 5840 5844 5849 5853 5858 5862 5865 5869 5872 5875 5877 5880 5881 5882 5885 5888 5888 5893 5896 5900 5901 5902 5903 5905 5905
5686 5696 5707 5717 5731 5739 5747 5753 5761 5769 5776 5786 5792 5798 5805 5810 5814 5819 5827 5833 5839 5843 5847 5853 5855 5859 5864 5867 5866 5867 5870 5872 5875 5876 5881 5887 5890 5893 5894 5893 5893 5893 5894
5664 5671 5683 5694 5705 5717 5726 5734 5741 5749 5758 5768 5775 5783 5787 5792 5802 5804 5813 5820 5826 5829 5835 5841 5846 5850 5855 5856 5858 5858 5859 5861 5864 5868 5872 5876 5879 5881 5883 5883 5882 5882 5883